(103384) = 2000 AG121

Discovered at Socorro on 2000-01-05 by LINEAR.

Orbit

Orbit type: Main Belt

Note: WebGL enabled browser required.

epoch2024-03-31.0
epoch JD2460400.5
perihelion date2022-10-17.22204
perihelion JD2459869.72204
argument of perihelion (°)345.85062
ascending node (°)137.48329
inclination (°)9.47778
eccentricity0.2141537
perihelion distance (AU)2.1554040
Tisserand w.r.t. Jupiter3.3
ΔV w.r.t. Earth (km/sec)9.7
semimajor axis (AU)2.7427806
mean anomaly (°)115.16755
mean daily motion (°/day)0.21697880
aphelion distance (AU)3.330
period (years)4.54
P-vector [x]-0.55177248
P-vector [y]0.78029495
P-vector [z]0.29442643
Q-vector [x]-0.82653708
Q-vector [y]-0.55873406
Q-vector [z]-0.06821075
absolute magnitude15.88
phase slope0.15
uncertainty0
referenceMPEC 2024-E179
observations used760
oppositions15
arc length (days)8559
first opposition used1999
last opposition used2023
residual rms (arc-secs)0.66
perturbers coarse indicatorM-v
perturbers precise indicator003Ek
first observation date used1999-12-31.0
last observation date used2023-06-07.0
computer nameMPCLINUX
JD of orbit computation2456937.478678
perihelion JD uncertainty (days)6.5850E-05
argument of perihelion uncertainty (°)3.3082E-05
ascending node uncertainty (°)2.9672E-05
inclination uncertainty (°)3.3783E-06
eccentricity uncertainty 3.0361E-08
perihelion distance uncertainty (AU)7.9056E-08
Minimum Orbit Intersection Distances (in AU)
for orbit epoch: 2460200.5, reference: E2024-CA7
Mercury1.82912
Venus1.44091
Earth1.17118
Mars0.51385
Jupiter1.75174
Saturn6.5326
Uranus16.0737
Neptune26.7917

Observations

751 total observations over interval: 1999 12 31.33604 – 2023 06 07.184920
These data are available for download (format description).

Date (UT) J2000 RA J2000 Dec Magn Location Ref
1999 12 31.33604 08 54 13.19 +11 47 46.0 18.7 R 699 – Lowell Observatory-LONEOS MPS 10182
1999 12 31.38343 08 54 12.12 +11 48 02.1   699 – Lowell Observatory-LONEOS MPS 10182
1999 12 31.41402 08 54 11.37 +11 48 11.1   699 – Lowell Observatory-LONEOS MPS 10182
2000 01 05.30509 08 52 11.91 +12 16 21.5 19.2   704 – Lincoln Laboratory ETS, New Mexico MPS 9358
2000 01 05.31976 08 52 11.35 +12 16 26.7 19.7   704 – Lincoln Laboratory ETS, New Mexico MPS 9358
2000 01 05.33432 08 52 11.05 +12 16 32.2 19.7   704 – Lincoln Laboratory ETS, New Mexico MPS 9358
2000 01 05.34890 08 52 10.54 +12 16 38.6 19.8   704 – Lincoln Laboratory ETS, New Mexico MPS 9358
2000 01 05.36349 08 52 10.09 +12 16 43.2 20.0   704 – Lincoln Laboratory ETS, New Mexico MPS 9358
2000 01 07.37021 08 51 09.38 +12 29 48.6 19.6   704 – Lincoln Laboratory ETS, New Mexico MPS 9358
2000 01 07.38535 08 51 08.79 +12 29 52.7 19.7   704 – Lincoln Laboratory ETS, New Mexico MPS 9358
2000 01 07.40190 08 51 08.23 +12 30 00.1 19.8   704 – Lincoln Laboratory ETS, New Mexico MPS 9358
2000 01 07.41669 08 51 07.69 +12 30 05.3 19.8   704 – Lincoln Laboratory ETS, New Mexico MPS 9358
2000 01 07.43148 08 51 07.20 +12 30 12.1 19.6   704 – Lincoln Laboratory ETS, New Mexico MPS 9358
2000 01 30.22011 08 34 27.84 +15 41 33.3 18.6 R 703 – Catalina Sky Survey MPS 10182
2000 01 30.23597 08 34 26.96 +15 41 41.0 17.7 R 703 – Catalina Sky Survey MPS 10182
2000 01 30.24774 08 34 26.44 +15 41 48.8 18.5 R 703 – Catalina Sky Survey MPS 10182
2000 01 30.25946 08 34 25.79 +15 41 55.3 18.1 R 703 – Catalina Sky Survey MPS 10182
2000 02 02.25533 08 31 58.82 +16 09 52.6 18.2   704 – Lincoln Laboratory ETS, New Mexico MPS 10182
2000 02 02.26971 08 31 58.08 +16 10 00.5 17.9   704 – Lincoln Laboratory ETS, New Mexico MPS 10182
2000 02 02.28424 08 31 57.36 +16 10 08.9 18.4   704 – Lincoln Laboratory ETS, New Mexico MPS 10182
2000 02 02.29858 08 31 56.64 +16 10 16.9 18.5   704 – Lincoln Laboratory ETS, New Mexico MPS 10182
2000 02 02.31329 08 31 55.89 +16 10 25.6 18.7   704 – Lincoln Laboratory ETS, New Mexico MPS 10182
2000 02 03.23222 08 31 11.68 +16 18 59.2 18.6   704 – Lincoln Laboratory ETS, New Mexico MPS 10182
2000 02 03.24692 08 31 10.93 +16 19 06.8 18.8   704 – Lincoln Laboratory ETS, New Mexico MPS 10182
2000 02 03.26156 08 31 10.17 +16 19 14.5 19.1   704 – Lincoln Laboratory ETS, New Mexico MPS 10182
2000 02 03.27620 08 31 09.48 +16 19 23.4 19.6   704 – Lincoln Laboratory ETS, New Mexico MPS 10182
2000 02 03.29085 08 31 08.73 +16 19 30.5 18.7   704 – Lincoln Laboratory ETS, New Mexico MPS 10182
2000 02 05.23171 08 29 36.70 +16 37 31.2 18.3   704 – Lincoln Laboratory ETS, New Mexico MPS 10182
2000 02 05.23193 08 29 36.64 +16 37 30.1 17.9   704 – Lincoln Laboratory ETS, New Mexico MPS 10182
2000 02 05.24696 08 29 35.88 +16 37 38.3 18.3   704 – Lincoln Laboratory ETS, New Mexico MPS 10182
2000 02 05.24719 08 29 35.90 +16 37 38.6 18.3   704 – Lincoln Laboratory ETS, New Mexico MPS 10182
2000 02 05.26226 08 29 35.17 +16 37 47.8 18.2   704 – Lincoln Laboratory ETS, New Mexico MPS 10182
2000 02 05.26248 08 29 35.15 +16 37 47.3 17.8   704 – Lincoln Laboratory ETS, New Mexico MPS 10182
2000 02 05.27747 08 29 34.41 +16 37 56.0 17.8   704 – Lincoln Laboratory ETS, New Mexico MPS 10182
2000 02 05.27770 08 29 34.35 +16 37 55.8 17.7   704 – Lincoln Laboratory ETS, New Mexico MPS 10182
2000 02 05.29273 08 29 33.64 +16 38 05.0 18.0   704 – Lincoln Laboratory ETS, New Mexico MPS 10182
2000 02 05.29296 08 29 33.63 +16 38 04.4 17.8   704 – Lincoln Laboratory ETS, New Mexico MPS 10182
2000 02 06.16186 08 28 53.50 +16 46 02.8 18.7   704 – Lincoln Laboratory ETS, New Mexico MPS 10182
2000 02 06.16208 08 28 53.46 +16 46 03.3 18.2   704 – Lincoln Laboratory ETS, New Mexico MPS 10182
2000 02 06.17687 08 28 52.82 +16 46 11.9 18.5   704 – Lincoln Laboratory ETS, New Mexico MPS 10182
2000 02 06.17711 08 28 52.76 +16 46 12.2 18.4   704 – Lincoln Laboratory ETS, New Mexico MPS 10182
2000 02 06.19185 08 28 52.09 +16 46 20.3 18.3   704 – Lincoln Laboratory ETS, New Mexico MPS 10182
2000 02 06.19208 08 28 52.07 +16 46 20.6 18.2   704 – Lincoln Laboratory ETS, New Mexico MPS 10182
2000 02 06.20688 08 28 51.36 +16 46 28.9 19.2   704 – Lincoln Laboratory ETS, New Mexico MPS 10182
2000 02 06.20712 08 28 51.22 +16 46 28.9 19.4   704 – Lincoln Laboratory ETS, New Mexico MPS 10182
2000 02 06.22190 08 28 50.66 +16 46 37.1 18.6   704 – Lincoln Laboratory ETS, New Mexico MPS 10182
2000 02 06.22213 08 28 50.59 +16 46 36.7 18.4   704 – Lincoln Laboratory ETS, New Mexico MPS 10182
2001 06 28.24750 16 32 59.18 -10 01 00.7 21.2 V 691 – Steward Observatory, Kitt Peak-Spacewatch MPS 90400
2001 06 28.26964 16 32 58.27 -10 01 03.4 21.5 V 691 – Steward Observatory, Kitt Peak-Spacewatch MPS 90400
2001 06 28.29323 16 32 57.33 -10 01 06.1 21.4 V 691 – Steward Observatory, Kitt Peak-Spacewatch MPS 90400
2003 10 15.31267 03 02 50.46 +02 10 21.5 19.1 R 699 – Lowell Observatory-LONEOS MPS 90400
2003 10 15.32932 03 02 49.61 +02 10 16.0   699 – Lowell Observatory-LONEOS MPS 90400
2003 10 15.34594 03 02 49.00 +02 10 09.9   699 – Lowell Observatory-LONEOS MPS 90400
2003 10 15.36244 03 02 48.50 +02 10 03.1   699 – Lowell Observatory-LONEOS MPS 90400
2003 10 20.31958 02 59 33.26 +01 38 07.6 19.2   704 – Lincoln Laboratory ETS, New Mexico MPS 90400
2003 10 20.33157 02 59 32.71 +01 38 03.2 19.3   704 – Lincoln Laboratory ETS, New Mexico MPS 90400
2003 10 20.34298 02 59 32.17 +01 37 58.6 19.4   704 – Lincoln Laboratory ETS, New Mexico MPS 90400
2003 10 20.36597 02 59 31.23 +01 37 48.8 20.2   704 – Lincoln Laboratory ETS, New Mexico MPS 90400
2003 10 24.330080 02 56 35.218 +01 13 03.22 19.32 V 645 – Apache Point-Sloan Digital Sky Survey MPS 136846
2003 10 24.333552 02 56 35.051 +01 13 01.92 20.05   645 – Apache Point-Sloan Digital Sky Survey MPS 136846
2003 10 26.50229 02 54 52.47 +00 59 58.3 20.5   608 – Haleakala-AMOS MPS 89301
2003 10 26.51287 02 54 51.95 +00 59 54.3 20.3   608 – Haleakala-AMOS MPS 89301
2003 10 26.52345 02 54 51.41 +00 59 50.7 20.2   608 – Haleakala-AMOS MPS 89301
2003 10 27.29589 02 54 14.11 +00 55 14.9 18.6 R 699 – Lowell Observatory-LONEOS MPS 89301
2003 10 27.31084 02 54 13.38 +00 55 10.3   699 – Lowell Observatory-LONEOS MPS 89301
2003 10 27.32590 02 54 12.62 +00 55 04.7   699 – Lowell Observatory-LONEOS MPS 89301
2003 10 27.34085 02 54 11.80 +00 54 58.4   699 – Lowell Observatory-LONEOS MPS 89301
2003 11 20.246120 02 33 46.881 -00 42 57.82 19.35 V 645 – Apache Point-Sloan Digital Sky Survey MPS 136846
2003 11 20.249592 02 33 46.709 -00 42 58.21 20.05   645 – Apache Point-Sloan Digital Sky Survey MPS 136846
2003 11 28.233010 02 27 58.048 -00 50 31.71 19.55 V 645 – Apache Point-Sloan Digital Sky Survey MPS 136846
2003 11 28.236482 02 27 57.903 -00 50 31.84 20.20   645 – Apache Point-Sloan Digital Sky Survey MPS 136846
2003 11 29.19266 02 27 21.01 -00 50 26.2 19.0 C 704 – Lincoln Laboratory ETS, New Mexico MPS 291153
2003 11 29.20571 02 27 20.50 -00 50 27.3 19.2 C 704 – Lincoln Laboratory ETS, New Mexico MPS 291153
2003 11 29.21895 02 27 19.97 -00 50 26.7 18.8 C 704 – Lincoln Laboratory ETS, New Mexico MPS 291153
2003 11 29.23211 02 27 19.47 -00 50 26.6 19.5 C 704 – Lincoln Laboratory ETS, New Mexico MPS 291153
2003 11 29.24524 02 27 18.96 -00 50 25.8 19.0 C 704 – Lincoln Laboratory ETS, New Mexico MPS 291153
2005 01 09.46244 13 20 21.31 -01 47 36.1 20.3 R H06 – iTelescope Observatory, Mayhill MPS 123967
2005 01 09.47217 13 20 21.98 -01 47 36.9 19.9 R H06 – iTelescope Observatory, Mayhill MPS 123967
2005 01 09.48189 13 20 22.67 -01 47 39.5 19.7 R H06 – iTelescope Observatory, Mayhill MPS 123967
2005 03 10.34032 13 48 07.67 +01 32 07.6 19.2 R 703 – Catalina Sky Survey MPS 127749
2005 03 10.34980 13 48 07.44 +01 32 12.2 18.9 R 703 – Catalina Sky Survey MPS 127749
2005 03 10.35922 13 48 07.23 +01 32 16.9 18.6 R 703 – Catalina Sky Survey MPS 127749
2005 03 10.36865 13 48 07.02 +01 32 20.8 19.2 R 703 – Catalina Sky Survey MPS 127749
2005 03 16.35535 13 45 36.69 +02 20 48.2 20.0 R 683 – Goodricke-Pigott Observatory, Tucson MPS 128891
2005 03 16.36868 13 45 36.25 +02 20 52.8 20.5 R 683 – Goodricke-Pigott Observatory, Tucson MPS 128891
